AVA0617 SKBQ-SKRG

Flight info

Callsign AVA0617
Flight time N/A
Altitude 33000
Route VOVLU2D VOVLU UW3 BIVIG BIVIG3C
Aircraft E170/M-SDE3GILORVW/S

Departure

Time 2026-04-29 17:37
Airport Ernesto Cortissoz International Airport (SKBQ)

Arrival

Time N/A
Airport Jose Maria Córdova International Airport (SKRG)
Time Latitude Longitude Altitude Speed Heading
2026-04-29 17:31 10.88661 -74.77737 95 ft 0 kts 130°
2026-04-29 17:32 10.88673 -74.77752 95 ft 9 kts 130°
2026-04-29 17:32 10.88696 -74.77776 93 ft 2 kts 150°
2026-04-29 17:33 10.88707 -74.77779 95 ft 2 kts 193°
2026-04-29 17:33 10.88716 -74.77774 93 ft 2 kts 214°
2026-04-29 17:33 10.88725 -74.77768 93 ft 2 kts 219°
2026-04-29 17:34 10.88684 -74.77802 93 ft 22 kts 219°
2026-04-29 17:34 10.88575 -74.77889 95 ft 27 kts 218°
2026-04-29 17:35 10.88512 -74.78011 96 ft 28 kts 220°
2026-04-29 17:35 10.88399 -74.78313 105 ft 33 kts 226°
2026-04-29 17:35 10.88154 -74.78532 107 ft 61 kts 220°
2026-04-29 17:36 10.87905 -74.78778 110 ft 28 kts 256°
2026-04-29 17:36 10.87896 -74.78854 110 ft 0 kts 267°
2026-04-29 17:36 10.87900 -74.78919 110 ft 26 kts 286°
2026-04-29 17:36 10.88005 -74.78909 107 ft 12 kts 43°
2026-04-29 17:37 10.88186 -74.78743 107 ft 77 kts 41°
2026-04-29 17:37 10.88858 -74.78178 191 ft 164 kts 39°
2026-04-29 17:37 10.89753 -74.77468 1314 ft 176 kts 31°
2026-04-29 17:37 10.90805 -74.76674 2352 ft 199 kts 42°
2026-04-29 17:38 10.91872 -74.75665 3473 ft 219 kts 44°
2026-04-29 17:38 10.93028 -74.74557 4699 ft 235 kts 43°
2026-04-29 17:38 10.94345 -74.73494 5940 ft 248 kts 32°
2026-04-29 17:38 10.96028 -74.73086 7160 ft 260 kts 353°
2026-04-29 17:39 10.97660 -74.73845 8345 ft 269 kts 315°
2026-04-29 17:39 10.98823 -74.75377 9528 ft 278 kts 303°
2026-04-29 17:39 10.99897 -74.77069 10496 ft 294 kts 301°
2026-04-29 17:39 11.01125 -74.78846 11131 ft 320 kts 308°
2026-04-29 17:40 11.02618 -74.80641 11791 ft 342 kts 310°
2026-04-29 17:40 11.04143 -74.82591 12484 ft 361 kts 305°
2026-04-29 17:40 11.05664 -74.84653 13254 ft 375 kts 307°
2026-04-29 17:40 11.06993 -74.86958 14021 ft 383 kts 287°
2026-04-29 17:41 11.07246 -74.89649 14765 ft 386 kts 260°
2026-04-29 17:41 11.06312 -74.92197 15518 ft 388 kts 234°
2026-04-29 17:41 11.04370 -74.94089 16287 ft 389 kts 211°
2026-04-29 17:41 11.02017 -74.95442 17035 ft 394 kts 207°
2026-04-29 17:42 10.99588 -74.96785 17756 ft 400 kts 208°
2026-04-29 17:42 10.97169 -74.98219 18416 ft 405 kts 210°
2026-04-29 17:42 10.94755 -74.99739 19001 ft 410 kts 212°
2026-04-29 17:42 10.92481 -75.01524 19564 ft 416 kts 221°
2026-04-29 17:43 10.90351 -75.03532 20131 ft 420 kts 223°
2026-04-29 17:43 10.88098 -75.05450 20677 ft 424 kts 217°
2026-04-29 17:43 10.85673 -75.07182 21183 ft 429 kts 208°
2026-04-29 17:43 10.82800 -75.08011 21691 ft 435 kts 185°
2026-04-29 17:44 10.79754 -75.07987 22175 ft 440 kts 178°
2026-04-29 17:44 10.76736 -75.07670 22624 ft 445 kts 171°
2026-04-29 17:44 10.73692 -75.06981 23063 ft 450 kts 168°
2026-04-29 17:44 10.70590 -75.06429 23464 ft 453 kts 173°
2026-04-29 17:45 10.67463 -75.05932 23806 ft 458 kts 170°
2026-04-29 17:45 10.64327 -75.05295 24150 ft 461 kts 171°
2026-04-29 17:45 10.61148 -75.04788 24492 ft 463 kts 172°
2026-04-29 17:45 10.59034 -75.04398 24713 ft 465 kts 170°
2026-04-29 17:46 10.55840 -75.03787 25043 ft 467 kts 172°
2026-04-29 17:46 10.52624 -75.03257 25362 ft 469 kts 171°
2026-04-29 17:46 10.49402 -75.02644 25673 ft 472 kts 171°
2026-04-29 17:46 10.46158 -75.02079 25976 ft 473 kts 172°
2026-04-29 17:47 10.42895 -75.01501 26272 ft 476 kts 171°
2026-04-29 17:47 10.39678 -75.00902 26547 ft 477 kts 172°
2026-04-29 17:47 10.36384 -75.00340 26820 ft 479 kts 172°
2026-04-29 17:47 10.33094 -74.99731 27081 ft 481 kts 171°
2026-04-29 17:48 10.29786 -74.99147 27333 ft 483 kts 172°
2026-04-29 17:48 10.26466 -74.98559 27582 ft 485 kts 171°
2026-04-29 17:48 10.23174 -74.97954 27821 ft 486 kts 172°
2026-04-29 17:48 10.19837 -74.97375 28044 ft 488 kts 172°
2026-04-29 17:49 10.16483 -74.96763 28264 ft 490 kts 171°
2026-04-29 17:49 10.13124 -74.96166 28467 ft 491 kts 172°
2026-04-29 17:49 10.09750 -74.95569 28667 ft 493 kts 171°
2026-04-29 17:49 10.06370 -74.94953 28851 ft 494 kts 172°
2026-04-29 17:50 10.02971 -74.94359 29040 ft 496 kts 172°
2026-04-29 17:50 9.99565 -74.93740 29215 ft 497 kts 171°
2026-04-29 17:50 9.96147 -74.93134 29387 ft 499 kts 172°
2026-04-29 17:50 9.92720 -74.92525 29552 ft 500 kts 171°
2026-04-29 17:51 9.89294 -74.91905 29621 ft 497 kts 172°
2026-04-29 17:51 9.82551 -74.90705 29632 ft 491 kts 171°
2026-04-29 17:52 9.75839 -74.89512 29632 ft 486 kts 171°
2026-04-29 17:52 9.69193 -74.88328 29642 ft 483 kts 171°
2026-04-29 17:53 9.62630 -74.87153 29641 ft 480 kts 171°
2026-04-29 17:53 9.56052 -74.85978 29648 ft 477 kts 171°
2026-04-29 17:54 9.49541 -74.84951 29649 ft 475 kts 174°
2026-04-29 17:54 9.42960 -74.84847 29653 ft 472 kts 183°
2026-04-29 17:55 9.36393 -74.84733 29645 ft 471 kts 182°
2026-04-29 17:55 9.29832 -74.84758 29653 ft 471 kts 182°
2026-04-29 17:56 9.23341 -74.85473 29656 ft 469 kts 192°
2026-04-29 17:56 9.16931 -74.86476 29658 ft 469 kts 188°
2026-04-29 17:57 9.10478 -74.87516 29662 ft 469 kts 187°
2026-04-29 17:57 9.04032 -74.88546 29658 ft 469 kts 188°
2026-04-29 17:58 8.97581 -74.89540 29664 ft 469 kts 190°
2026-04-29 17:58 8.91113 -74.90516 29664 ft 469 kts 190°
2026-04-29 17:59 8.84697 -74.91499 29671 ft 469 kts 189°
2026-04-29 17:59 8.78242 -74.92513 29667 ft 469 kts 188°
2026-04-29 18:00 8.71785 -74.93523 29673 ft 469 kts 189°
2026-04-29 18:00 8.65334 -74.94513 29677 ft 469 kts 189°
2026-04-29 18:01 8.58878 -74.95501 29680 ft 469 kts 189°
2026-04-29 18:01 8.52469 -74.96494 29685 ft 469 kts 189°
2026-04-29 18:01 8.49260 -74.96994 29986 ft 461 kts 189°
2026-04-29 18:02 8.46125 -74.97482 30397 ft 452 kts 189°
2026-04-29 18:02 8.43039 -74.97949 30811 ft 442 kts 189°
2026-04-29 18:02 8.40028 -74.98424 31231 ft 434 kts 189°
2026-04-29 18:02 8.37076 -74.98874 31656 ft 426 kts 189°
2026-04-29 18:03 8.34172 -74.99321 32091 ft 418 kts 189°
2026-04-29 18:03 8.31321 -74.99768 32481 ft 412 kts 189°
2026-04-29 18:03 8.28489 -75.00197 32668 ft 411 kts 189°
2026-04-29 18:04 8.22805 -75.01080 32810 ft 416 kts 189°
2026-04-29 18:04 8.17053 -75.01957 32835 ft 423 kts 189°
2026-04-29 18:05 8.11198 -75.02853 32844 ft 429 kts 189°
2026-04-29 18:05 8.05258 -75.03766 32847 ft 434 kts 189°
2026-04-29 18:06 7.99283 -75.04687 32843 ft 439 kts 189°
2026-04-29 18:06 7.93215 -75.05622 32848 ft 443 kts 189°
2026-04-29 18:07 7.87090 -75.06567 32850 ft 446 kts 189°
2026-04-29 18:07 7.80930 -75.07517 32853 ft 449 kts 189°
2026-04-29 18:08 7.74764 -75.08470 32855 ft 451 kts 189°
2026-04-29 18:08 7.68532 -75.09421 32859 ft 453 kts 189°
2026-04-29 18:09 7.62323 -75.10362 32863 ft 455 kts 189°
2026-04-29 18:09 7.56050 -75.11311 32874 ft 456 kts 189°
2026-04-29 18:10 7.49766 -75.12263 32881 ft 457 kts 189°
2026-04-29 18:10 7.43458 -75.13220 32891 ft 458 kts 189°
2026-04-29 18:11 7.37142 -75.14178 32904 ft 459 kts 189°
2026-04-29 18:11 7.30860 -75.15129 32913 ft 459 kts 189°
2026-04-29 18:12 7.24528 -75.16089 32927 ft 460 kts 189°
2026-04-29 18:12 7.18194 -75.17050 32937 ft 460 kts 189°
2026-04-29 18:13 7.11851 -75.18013 32948 ft 461 kts 189°
2026-04-29 18:13 7.05537 -75.18957 32958 ft 461 kts 186°
2026-04-29 18:14 6.99124 -75.19129 32970 ft 462 kts 179°
2026-04-29 18:14 6.92661 -75.18933 32602 ft 470 kts 178°
2026-04-29 18:14 6.89346 -75.18794 32160 ft 480 kts 178°
2026-04-29 18:15 6.86032 -75.18643 31737 ft 488 kts 178°
2026-04-29 18:15 6.82617 -75.18481 31318 ft 487 kts 178°
2026-04-29 18:15 6.79269 -75.18318 30900 ft 477 kts 178°
2026-04-29 18:15 6.75976 -75.18155 30494 ft 469 kts 178°
2026-04-29 18:16 6.72741 -75.17995 30087 ft 462 kts 177°
2026-04-29 18:16 6.69549 -75.17836 29615 ft 456 kts 177°
2026-04-29 18:16 6.66398 -75.17681 29149 ft 450 kts 177°
2026-04-29 18:16 6.63283 -75.17527 28689 ft 446 kts 177°
2026-04-29 18:17 6.60195 -75.17375 28235 ft 442 kts 177°
2026-04-29 18:17 6.57330 -75.17234 27811 ft 438 kts 177°
2026-04-29 18:17 6.54291 -75.17084 27372 ft 435 kts 176°
2026-04-29 18:17 6.51318 -75.16937 26942 ft 432 kts 176°
2026-04-29 18:18 6.48284 -75.16787 26512 ft 430 kts 176°
2026-04-29 18:18 6.45338 -75.16642 26097 ft 428 kts 176°
2026-04-29 18:18 6.42365 -75.16591 25683 ft 427 kts 184°
2026-04-29 18:18 6.39432 -75.17005 25294 ft 426 kts 189°
2026-04-29 18:19 6.36521 -75.17600 24910 ft 425 kts 191°
2026-04-29 18:19 6.33650 -75.18267 24542 ft 424 kts 192°
2026-04-29 18:19 6.30786 -75.18976 24167 ft 423 kts 193°
2026-04-29 18:19 6.27939 -75.19705 23810 ft 422 kts 193°
2026-04-29 18:20 6.25104 -75.20446 23382 ft 421 kts 193°
2026-04-29 18:20 6.22274 -75.21197 22939 ft 420 kts 193°
2026-04-29 18:20 6.19449 -75.21952 22502 ft 419 kts 193°
2026-04-29 18:20 6.16630 -75.22709 22054 ft 418 kts 193°
2026-04-29 18:21 6.13812 -75.23470 21621 ft 417 kts 193°
2026-04-29 18:21 6.11013 -75.24227 21184 ft 417 kts 193°
2026-04-29 18:21 6.08250 -75.24975 20766 ft 416 kts 193°
2026-04-29 18:21 6.05454 -75.25731 20338 ft 415 kts 193°
2026-04-29 18:22 6.02655 -75.26489 19910 ft 415 kts 193°
2026-04-29 18:22 5.99867 -75.27242 19491 ft 414 kts 193°
2026-04-29 18:22 5.97123 -75.27986 19073 ft 400 kts 193°
2026-04-29 18:22 5.94495 -75.28699 18659 ft 380 kts 193°
2026-04-29 18:23 5.92015 -75.29375 18210 ft 359 kts 193°
2026-04-29 18:23 5.89790 -75.30352 17752 ft 346 kts 216°
2026-04-29 18:23 5.88258 -75.32150 17156 ft 339 kts 243°
2026-04-29 18:23 5.87707 -75.34428 16300 ft 337 kts 270°
2026-04-29 18:24 5.88062 -75.36710 15391 ft 327 kts 283°
2026-04-29 18:24 5.88779 -75.38843 14516 ft 319 kts 300°
2026-04-29 18:24 5.90255 -75.40396 13659 ft 309 kts 330°
2026-04-29 18:24 5.92243 -75.41104 12735 ft 300 kts 350°
2026-04-29 18:25 5.94283 -75.41483 11783 ft 297 kts 353°
2026-04-29 18:25 5.96229 -75.41769 10847 ft 254 kts 355°
2026-04-29 18:25 5.97903 -75.41975 10384 ft 240 kts 356°
2026-04-29 18:25 5.99559 -75.42152 9901 ft 237 kts 356°
2026-04-29 18:26 6.01170 -75.42266 9578 ft 233 kts
2026-04-29 18:26 6.02782 -75.42228 9441 ft 232 kts
2026-04-29 18:26 6.04415 -75.42195 9174 ft 237 kts
2026-04-29 18:26 6.06061 -75.42237 8826 ft 236 kts
2026-04-29 18:27 6.07705 -75.42272 8489 ft 235 kts
2026-04-29 18:27 6.09317 -75.42271 8173 ft 216 kts
2026-04-29 18:27 6.10796 -75.42267 7902 ft 212 kts
2026-04-29 18:27 6.12272 -75.42270 7634 ft 212 kts
2026-04-29 18:28 6.13740 -75.42285 7279 ft 210 kts
2026-04-29 18:28 6.15182 -75.42297 6982 ft 209 kts 360°
2026-04-29 18:28 6.16564 -75.42307 6999 ft 183 kts 359°
2026-04-29 18:28 6.17735 -75.42314 7024 ft 156 kts
2026-04-29 18:29 6.18736 -75.42395 7073 ft 147 kts 342°